Folgueroles





Hora UTC 23:30
Temperatura 7.4 ºC
Humitat 92.0 %
Pressió 1017.3 hPa
Pluja 0.0 mm
Velocitat vent 4.8 km/h
Direcció vent NE

Dades diàries 2020-03-31



Hora UTC (hivern +1h; estiu +2h)
Temperatura (ºC) Humitat (%) Pressió (hPa) Velocitat vent (km/h) Precipitació (mm)
Hora UTC Aire Humitat Pressió Vel. Dir. Vel. Max Dir. Intent. màx 5 min.
00:05 5.2 92.0 1015.7 0.0 WSW 0.0 0.0
00:10 5.1 92.0 1015.7 0.0 WSW 0.0 0.0
00:15 5.2 92.0 1015.8 0.0 WSW 0.0 0.0
00:20 5.2 92.0 1015.8 0.0 WSW 0.0 0.0
00:20 5.2 92.0 1015.9 0.0 W 0.0 0.0
00:30 5.3 93.0 1015.8 0.0 W 0.0 0.0
00:35 5.3 93.0 1015.8 0.0 W 0.0 0.0
00:40 5.3 93.0 1015.8 0.0 W 0.0 0.0
00:45 5.3 93.0 1015.6 0.0 W 0.0 0.0
00:50 5.3 93.0 1015.6 0.0 W 0.0 0.0
00:55 5.3 93.0 1015.7 0.0 W 0.0 0.0
01:00 5.3 93.0 1015.6 0.0 W 0.0 0.0
01:05 5.3 93.0 1015.5 0.0 W 0.0 0.0
01:10 5.3 93.0 1015.4 0.0 W 0.0 0.0
01:15 5.3 93.0 1015.5 0.0 W 0.0 0.0
01:20 5.4 93.0 1015.5 0.0 W 0.0 0.0
01:20 5.4 93.0 1015.5 0.0 W 0.0 0.0
01:30 5.5 93.0 1015.4 0.0 W 3.2 0.0
01:35 5.5 93.0 1015.3 0.0 W 3.2 0.0
01:40 5.6 93.0 1015.3 0.0 W 3.2 0.0
01:45 5.6 93.0 1015.1 1.6 NE 3.2 0.0
01:50 5.6 93.0 1015.1 1.6 NE 8.0 0.0
01:55 5.6 92.0 1015.2 1.6 NE 8.0 0.0
02:00 5.6 91.0 1015.2 0.0 NE 6.4 0.0
02:05 5.7 91.0 1015.1 3.2 NNE 6.4 0.0
02:10 5.8 90.0 1015.0 3.2 NNE 6.4 0.0
02:15 5.8 90.0 1015.0 1.6 NNE 4.8 0.0
02:20 5.8 89.0 1015.1 3.2 ENE 9.7 0.0
02:20 5.9 88.0 1015.1 4.8 ENE 9.7 0.0
02:30 5.9 88.0 1015.1 3.2 NE 11.3 0.0
02:35 5.9 87.0 1015.1 8.0 ENE 11.3 0.0
02:40 5.9 88.0 1015.1 3.2 ENE 9.7 0.0
02:45 5.9 88.0 1015.2 6.4 ENE 11.3 0.0
02:50 5.9 87.0 1015.1 3.2 ENE 9.7 0.0
02:55 5.9 87.0 1015.1 12.9 E 16.1 0.0
03:00 6.0 87.0 1015.1 8.0 ENE 16.1 0.0
03:05 5.9 87.0 1015.1 4.8 ENE 14.5 0.0
03:10 5.9 87.0 1015.1 8.0 ENE 8.0 0.0
03:15 5.9 87.0 1015.2 1.6 ENE 9.7 0.0
03:20 5.8 87.0 1015.0 1.6 ENE 8.0 0.0
03:20 5.9 87.0 1015.0 1.6 ENE 6.4 0.0
03:30 5.9 87.0 1015.0 1.6 ENE 8.0 0.0
03:35 5.9 86.0 1015.0 1.6 ENE 8.0 0.0
03:40 5.9 86.0 1015.0 0.0 ENE 4.8 0.0
03:45 5.9 86.0 1015.0 1.6 S 4.8 0.0
03:50 5.9 86.0 1015.1 0.0 S 4.8 0.0
03:55 5.9 86.0 1015.2 0.0 NE 4.8 0.0
04:00 5.9 86.0 1015.3 3.2 ENE 6.4 0.0
04:05 5.9 86.0 1015.4 6.4 ENE 8.0 0.0
04:10 5.9 86.0 1015.4 6.4 ENE 8.0 0.0
04:15 6.0 86.0 1015.3 4.8 NE 8.0 0.0
04:20 6.0 87.0 1015.3 3.2 NE 8.0 0.0
04:20 6.1 87.0 1015.3 1.6 NE 8.0 0.0
04:30 6.0 86.0 1015.4 4.8 ENE 8.0 0.0
04:35 5.9 86.0 1015.3 4.8 ENE 9.7 0.0
04:40 5.9 87.0 1015.3 8.0 ENE 12.9 0.0
04:45 5.8 86.0 1015.3 8.0 ENE 14.5 0.0
04:50 5.7 86.0 1015.3 8.0 ENE 14.5 0.0
04:55 5.7 87.0 1015.2 6.4 ENE 12.9 0.0
05:00 5.6 87.0 1015.2 4.8 NE 12.9 0.0
05:05 5.6 87.0 1015.1 6.4 ENE 16.1 0.0
05:10 5.6 87.0 1015.1 4.8 NE 17.7 0.0
05:15 5.7 87.0 1015.0 6.4 NE 16.1 0.0
05:20 5.6 87.0 1015.0 1.6 ENE 11.3 0.0
05:20 5.6 87.0 1015.1 3.2 NE 11.3 0.0
05:30 5.6 87.0 1015.2 0.0 ENE 4.8 0.0
05:35 5.6 87.0 1015.3 1.6 ENE 3.2 0.0
05:40 5.7 87.0 1015.4 0.0 ENE 4.8 0.0
05:45 5.7 87.0 1015.5 0.0 ENE 4.8 0.0
05:50 5.7 87.0 1015.6 3.2 ENE 6.4 0.0
05:55 5.8 86.0 1015.6 1.6 SE 6.4 0.0
06:00 5.8 86.0 1015.7 1.6 NE 6.4 0.0
06:05 5.8 86.0 1016.0 0.0 NE 4.8 0.0
06:10 5.9 86.0 1016.1 0.0 NE 3.2 0.0
06:15 5.9 86.0 1016.3 0.0 NE 1.6 0.0
06:20 6.0 86.0 1016.2 0.0 NE 1.6 0.0
06:20 6.0 87.0 1016.2 1.6 NE 3.2 0.0
06:30 6.1 87.0 1016.2 3.2 NE 6.4 0.0
06:35 6.2 88.0 1016.1 6.4 NE 8.0 0.0
06:40 6.3 86.0 1016.1 9.7 NE 11.3 0.0
06:45 6.3 86.0 1016.0 8.0 ENE 11.3 0.0
06:50 6.3 86.0 1016.0 3.2 NE 11.3 0.0
06:55 6.3 86.0 1016.2 3.2 ENE 11.3 0.0
07:00 6.3 86.0 1016.1 8.0 NE 14.5 0.0
07:05 6.4 86.0 1016.1 4.8 E 14.5 0.0
07:10 6.4 87.0 1016.1 6.4 NE 11.3 0.0
07:15 6.4 87.0 1016.1 4.8 NNE 9.7 0.0
07:20 6.6 87.0 1016.1 3.2 NE 9.7 0.0
07:20 6.7 87.0 1016.0 1.6 NE 9.7 0.0
07:30 6.7 86.0 1016.0 1.6 NE 6.4 0.0
07:35 6.8 87.0 1016.0 0.0 NE 6.4 0.0
07:40 6.9 86.0 1016.1 1.6 NNE 4.8 0.0
07:45 7.1 87.0 1016.1 6.4 ENE 8.0 0.0
07:50 7.2 86.0 1016.1 6.4 ENE 9.7 0.0
07:55 7.3 85.0 1016.2 12.9 ENE 12.9 0.0
08:00 7.4 85.0 1016.2 6.4 ENE 12.9 0.0
08:05 7.5 85.0 1016.2 6.4 NE 12.9 0.0
08:10 7.7 85.0 1016.1 8.0 ENE 14.5 0.0
08:15 7.8 85.0 1016.2 8.0 NNE 14.5 0.0
08:20 7.9 85.0 1016.2 9.7 NE 12.9 0.0
08:20 8.1 84.0 1016.2 3.2 E 11.3 0.0
08:30 8.2 84.0 1016.1 9.7 NE 14.5 0.0
08:35 8.4 84.0 1016.0 14.5 ENE 17.7 0.0
08:40 8.5 83.0 1016.1 8.0 ENE 17.7 0.0
08:45 8.6 84.0 1016.0 6.4 NE 14.5 0.0
08:50 8.6 83.0 1016.0 4.8 E 14.5 0.0
08:55 8.7 82.0 1016.1 8.0 E 12.9 0.0
09:00 8.6 83.0 1016.2 4.8 NE 11.3 0.0
09:05 8.6 82.0 1016.1 6.4 NNE 11.3 0.0
09:10 8.6 83.0 1016.1 8.0 E 16.1 0.0
09:15 8.6 83.0 1016.1 4.8 NE 16.1 0.0
09:20 8.6 83.0 1016.1 9.7 ENE 16.1 0.0
09:20 8.6 84.0 1016.1 4.8 ENE 14.5 0.0
09:30 8.5 83.0 1016.2 8.0 ENE 9.7 0.0
09:35 8.5 83.0 1016.2 0.0 ENE 8.0 0.0
09:40 8.6 83.0 1016.2 1.6 ENE 4.8 0.0
09:45 8.6 83.0 1016.2 1.6 ENE 4.8 0.0
09:50 8.6 83.0 1016.1 4.8 ENE 9.7 0.0
09:55 8.6 83.0 1016.3 3.2 E 12.9 0.0
10:00 8.5 83.0 1016.3 1.6 ENE 12.9 0.0
10:05 8.5 83.0 1016.3 4.8 ESE 8.0 0.0
10:10 8.5 82.0 1016.4 0.0 SSW 9.7 0.0
10:15 8.5 83.0 1016.4 3.2 ENE 9.7 0.0
10:20 8.6 83.0 1016.4 4.8 ENE 9.7 0.0
10:20 8.5 83.0 1016.2 3.2 ENE 9.7 0.0
10:30 8.5 83.0 1016.4 3.2 E 12.9 0.0
10:35 8.5 84.0 1016.4 4.8 ENE 11.3 0.0
10:40 8.5 84.0 1016.2 0.0 E 11.3 0.0
10:45 8.6 84.0 1016.2 1.6 ENE 8.0 0.0
10:50 8.7 84.0 1016.1 3.2 NE 6.4 0.0
10:55 8.7 83.0 1016.1 1.6 ESE 12.9 0.0
11:00 8.8 82.0 1016.2 6.4 ENE 12.9 0.0
11:05 8.8 83.0 1016.1 0.0 ENE 9.7 0.0
11:10 8.8 83.0 1016.2 3.2 ENE 4.8 0.0
11:15 8.9 84.0 1016.0 6.4 NNE 8.0 0.0
11:20 9.0 84.0 1015.9 3.2 NE 9.7 0.0
11:20 9.1 85.0 1015.8 3.2 NE 9.7 0.0
11:30 9.1 85.0 1015.8 3.2 ENE 8.0 0.0
11:35 9.2 85.0 1015.8 6.4 NE 6.4 0.0
11:40 9.2 84.0 1015.9 4.8 NE 11.3 0.0
11:45 9.3 84.0 1015.8 1.6 NE 11.3 0.0
11:50 9.3 83.0 1015.9 1.6 NE 8.0 0.0
11:55 9.4 84.0 1015.8 3.2 N 6.4 0.0
12:00 9.6 83.0 1015.9 0.0 N 6.4 0.0
12:05 9.6 82.0 1015.7 4.8 ENE 12.9 0.0
12:10 9.7 82.0 1015.8 6.4 E 16.1 0.0
12:15 9.7 82.0 1015.8 6.4 E 19.3 0.0
12:20 9.7 82.0 1015.8 4.8 E 14.5 0.0
12:20 9.8 81.0 1015.8 4.8 ESE 14.5 0.0
12:30 9.9 81.0 1015.8 11.3 E 17.7 0.0
12:35 9.9 80.0 1015.7 8.0 E 17.7 0.0
12:40 9.9 80.0 1015.8 12.9 E 19.3 0.0
12:45 9.8 81.0 1015.8 4.8 ESE 16.1 0.0
12:50 9.8 80.0 1015.8 8.0 ENE 17.7 0.0
12:55 9.8 81.0 1015.9 12.9 ENE 16.1 0.0
13:00 9.8 80.0 1015.9 9.7 ESE 17.7 0.0
13:05 9.8 80.0 1015.9 4.8 ENE 17.7 0.0
13:10 9.8 81.0 1015.9 3.2 E 12.9 0.0
13:15 9.8 80.0 1015.7 3.2 E 11.3 0.0
13:20 9.8 80.0 1015.8 8.0 E 17.7 0.0
13:25 9.8 80.0 1015.8 3.2 E 17.7 0.0
13:30 9.8 81.0 1016.0 4.8 E 9.7 0.0
13:35 9.8 80.0 1015.8 1.6 E 14.5 0.0
13:40 9.8 80.0 1015.8 4.8 E 14.5 0.0
13:45 9.8 81.0 1015.8 1.6 E 12.9 0.0
13:50 9.8 80.0 1015.8 4.8 E 12.9 0.0
13:55 9.8 80.0 1015.8 4.8 E 17.7 0.0
14:00 9.9 81.0 1015.7 3.2 E 17.7 0.0
14:05 9.9 80.0 1015.7 6.4 NE 9.7 0.0
14:10 10.0 81.0 1015.5 4.8 NE 12.9 0.0
14:15 10.0 80.0 1015.5 8.0 ENE 14.5 0.0
14:20 10.1 80.0 1015.5 12.9 E 16.1 0.0
14:25 10.1 81.0 1015.5 4.8 ENE 17.7 0.0
14:30 10.1 80.0 1015.5 3.2 ENE 16.1 0.0
14:35 10.1 80.0 1015.5 4.8 NE 16.1 0.0
14:40 10.1 80.0 1015.6 4.8 E 16.1 0.0
14:45 10.1 80.0 1015.6 4.8 E 14.5 0.0
14:50 10.1 80.0 1015.6 6.4 NE 12.9 0.0
14:55 10.1 79.0 1015.6 3.2 E 12.9 0.0
15:00 10.1 79.0 1015.7 6.4 E 17.7 0.0
15:05 10.1 79.0 1015.6 6.4 E 20.9 0.0
15:10 10.2 79.0 1015.6 8.0 ENE 20.9 0.0
15:15 10.2 79.0 1015.6 6.4 NE 19.3 0.0
15:20 10.2 80.0 1015.6 4.8 SE 16.1 0.0
15:25 10.2 80.0 1015.6 6.4 ENE 16.1 0.0
15:30 10.2 80.0 1015.6 14.5 ENE 16.1 0.0
15:35 10.1 80.0 1015.5 8.0 E 20.9 0.0
15:40 10.2 80.0 1015.5 6.4 ENE 17.7 0.0
15:45 10.2 81.0 1015.5 4.8 ENE 14.5 0.0
15:50 10.0 81.0 1015.5 14.5 E 17.7 0.0
15:55 9.9 81.0 1015.6 12.9 E 17.7 0.0
16:00 9.8 81.0 1015.6 16.1 ENE 22.5 0.0
16:05 9.7 81.0 1015.5 12.9 E 22.5 0.0
16:10 9.7 82.0 1015.6 8.0 E 22.5 0.0
16:15 9.7 82.0 1015.5 9.7 E 22.5 0.0
16:20 9.6 82.0 1015.5 6.4 ENE 20.9 0.0
16:25 9.6 83.0 1015.5 14.5 ENE 20.9 0.0
16:30 9.6 83.0 1015.4 16.1 ENE 20.9 0.0
16:35 9.5 83.0 1015.6 12.9 E 17.7 0.0
16:40 9.5 83.0 1015.6 6.4 E 17.7 0.0
16:45 9.4 83.0 1015.6 8.0 ENE 16.1 0.0
16:50 9.4 83.0 1015.7 4.8 E 17.7 0.0
16:55 9.4 84.0 1015.9 4.8 E 17.7 0.0
17:00 9.3 83.0 1015.8 4.8 E 19.3 0.0
17:05 9.2 84.0 1015.9 9.7 ENE 16.1 0.0
17:10 9.2 83.0 1015.8 14.5 E 17.7 0.0
17:15 9.2 84.0 1015.8 8.0 E 17.7 0.0
17:20 9.1 83.0 1015.9 8.0 NNE 17.7 0.0
17:25 9.1 83.0 1016.0 11.3 ENE 16.1 0.0
17:30 9.1 83.0 1016.0 11.3 E 16.1 0.0
17:35 8.9 84.0 1016.0 8.0 ENE 14.5 0.0
17:40 8.9 85.0 1015.9 12.9 E 17.7 0.0
17:45 8.8 85.0 1016.0 12.9 E 19.3 0.0
17:50 8.7 86.0 1016.1 6.4 NE 16.1 0.0
17:55 8.6 86.0 1016.1 6.4 ENE 11.3 0.0
18:00 8.5 87.0 1016.1 12.9 ENE 17.7 0.0
18:05 8.4 87.0 1016.2 8.0 NE 17.7 0.0
18:10 8.3 87.0 1016.3 4.8 E 20.9 0.0
18:15 8.3 87.0 1016.4 6.4 E 20.9 0.0
18:20 8.3 87.0 1016.5 4.8 E 17.7 0.2
18:25 8.3 87.0 1016.5 6.4 ENE 12.9 0.0
18:30 8.2 87.0 1016.5 8.0 ENE 12.9 0.0
18:35 8.1 87.0 1016.7 6.4 NE 14.5 0.0
18:40 8.1 88.0 1016.6 14.5 NE 16.1 0.0
18:45 8.1 88.0 1016.7 6.4 ENE 17.7 0.0
18:50 8.0 87.0 1016.9 8.0 ENE 17.7 0.2
18:55 7.9 88.0 1017.1 8.0 E 14.5 0.0
19:00 7.9 87.0 1017.1 6.4 ENE 17.7 0.0
19:05 7.8 88.0 1017.2 12.9 ENE 17.7 0.0
19:10 7.7 88.0 1017.2 6.4 E 14.5 0.0
19:15 7.7 88.0 1017.3 8.0 NE 16.1 0.0
19:20 7.7 88.0 1017.3 9.7 NE 16.1 0.0
19:25 7.6 89.0 1017.4 12.9 E 19.3 0.2
19:30 7.6 89.0 1017.4 11.3 NE 19.3 0.0
19:35 7.5 89.0 1017.5 4.8 ENE 16.1 0.0
19:40 7.4 89.0 1017.5 3.2 ENE 11.3 0.0
19:45 7.4 90.0 1017.5 3.2 NE 11.3 0.0
19:50 7.4 90.0 1017.5 4.8 ENE 11.3 0.0
19:55 7.3 90.0 1017.5 4.8 NE 11.3 0.0
20:00 7.3 90.0 1017.6 1.6 ENE 8.0 0.2
20:05 7.3 91.0 1017.5 4.8 NE 8.0 0.0
20:10 7.3 91.0 1017.5 9.7 NE 9.7 0.0
20:15 7.2 91.0 1017.6 6.4 ENE 9.7 0.0
20:20 7.2 91.0 1017.6 3.2 NE 8.0 0.0
20:25 7.2 91.0 1017.6 3.2 NE 8.0 0.0
20:30 7.2 91.0 1017.7 1.6 NE 6.4 0.0
20:35 7.1 91.0 1017.7 3.2 ENE 6.4 0.0
20:40 7.2 92.0 1017.7 4.8 NE 8.0 0.0
20:45 7.1 92.0 1017.6 6.4 NE 8.0 0.0
20:50 7.1 92.0 1017.7 4.8 NE 9.7 0.0
20:55 7.1 92.0 1017.7 4.8 NE 9.7 0.0
21:00 7.1 92.0 1017.7 4.8 NE 9.7 0.0
21:05 7.1 92.0 1017.7 6.4 NE 8.0 0.0
21:10 7.1 93.0 1017.7 4.8 NNE 8.0 0.0
21:15 7.1 93.0 1017.8 6.4 NNE 9.7 0.0
21:20 7.1 92.0 1017.7 3.2 NE 9.7 0.0
21:25 7.1 92.0 1017.8 3.2 NE 9.7 0.0
21:30 7.1 92.0 1017.8 4.8 NE 9.7 0.0
21:35 7.1 92.0 1017.8 1.6 NE 9.7 0.0
21:40 7.1 91.0 1017.7 1.6 NE 6.4 0.0
21:45 7.1 92.0 1017.7 3.2 NE 8.0 0.0
21:50 7.1 92.0 1017.6 6.4 ENE 11.3 0.0
21:55 7.2 91.0 1017.6 4.8 NE 11.3 0.0
22:00 7.2 91.0 1017.6 6.4 NE 11.3 0.0
22:05 7.2 91.0 1017.7 4.8 ENE 9.7 0.0
22:10 7.2 91.0 1017.7 6.4 NE 9.7 0.0
22:15 7.2 90.0 1017.7 3.2 NE 8.0 0.0
22:20 7.2 91.0 1017.7 4.8 E 6.4 0.0
22:25 7.2 91.0 1017.7 1.6 E 6.4 0.0
22:30 7.2 91.0 1017.7 1.6 ENE 6.4 0.0
22:35 7.2 91.0 1017.7 1.6 ENE 6.4 0.0
22:40 7.1 91.0 1017.7 0.0 ENE 4.8 0.0
22:45 7.1 91.0 1017.6 0.0 ENE 4.8 0.0
22:50 7.1 91.0 1017.6 0.0 ENE 0.0 0.0
22:55 7.2 91.0 1017.6 0.0 ENE 0.0 0.0
23:00 7.1 91.0 1017.6 0.0 ENE 0.0 0.0
23:05 7.2 92.0 1017.5 1.6 ENE 3.2 0.0
23:10 7.2 92.0 1017.4 3.2 ENE 4.8 0.0
23:15 7.2 92.0 1017.4 4.8 ENE 8.0 0.0
23:20 7.3 92.0 1017.3 3.2 ENE 14.5 0.0
23:25 7.3 92.0 1017.4 3.2 NNE 14.5 0.0
23:30 7.4 92.0 1017.3 4.8 NE 9.7 0.0
Màxima 10.2 93.0 1017.8 16.1 ENE 22.5 0.2
Mínima 5.1 79.0 1015.0
Total 0.8